[[{"header":{"parameterUnit":"m.s-1","parameterCategory":1,"la1":30.2991,"la2":30.254,"lo1":-89.0895,"lo2":-89.0444,"dy":0.0017,"dx":0.0017,"nx":28,"ny":28,"refTime":"2024-04-28T09:00:00:Z","depth":0,"parameterNumber":2,"parameterNumberName":"U-component_of_WINDS"},"data":[0,0,0,0,0,0,0,0,0,0,0,0,0,0,0,0,0,0,0,0,0,0,0,0,0,0,0,0,0,0,0,0,0,0,0,0,0,0,0,0,0,0,0,0,0,0,0,0,0,0,0,0,0,0,0,0,0,0,-5.7401,-5.7402,0,-5.7578,-5.758,-5.7582,-5.7595,-5.7593,-5.7591,-5.759,-5.7768,-5.7774,-5.778,0,0,0,0,0,0,0,0,0,0,0,0,0,-5.7069,-5.7075,-5.74,-5.7403,-5.7405,-5.7578,-5.7581,-5.7583,-5.7596,-5.7593,-5.7591,-5.7589,-5.7765,-5.7773,-5.7781,0,0,0,0,0,0,0,0,0,0,0,0,0,-5.7226,-5.7077,-5.74,-5.7432,-5.7437,-5.7578,-5.7581,-5.7584,-5.7596,-5.7593,-5.759,-5.7588,-5.7763,-5.7772,-5.7782,-5.7902,0,0,-5.7812,-5.7816,0,0,0,0,0,0,0,0,-5.7217,-5.7238,-5.7425,-5.743,-5.7436,-5.7562,-5.7529,-5.769,-5.7597,-5.7536,-5.759,-5.7586,-5.7701,-5.7716,-5.7756,-5.791,-5.7917,-5.7813,-5.7819,-5.7823,-5.7826,0,0,0,0,0,0,0,-5.7206,-5.7231,-5.7471,-5.7428,-5.7434,-5.7437,-5.7456,-5.7559,-5.7632,-5.7541,-5.7542,-5.7563,-5.7703,-5.7746,-5.776,-5.792,-5.7813,-5.7822,-5.7828,-5.7831,-5.8181,-5.8184,0,0,0,0,0,0,-5.719,-5.7221,-5.7465,-5.7476,-5.7317,-5.7445,-5.7467,-5.7524,-5.7631,-5.7645,-5.7566,-5.7563,-5.7731,-5.7748,-5.7766,-5.7912,-5.7823,-5.7832,-5.7838,-5.8177,-5.8182,-5.8185,0,0,0,0,0,0,-5.7182,-5.7211,-5.7458,-5.7349,-5.7381,-5.7454,-5.7519,-5.7529,-5.7572,-5.765,-5.7663,-5.7596,-5.7729,-5.7752,-5.7868,-5.7918,-5.7837,-5.7846,-5.8173,-5.8179,-5.8183,-5.8205,0,0,0,0,0,0,-5.7173,-5.7209,-5.7255,-5.735,-5.7387,-5.7558,-5.7522,-5.7535,-5.7589,-5.7588,-5.7682,-5.7695,-5.7729,-5.7853,-5.7878,-5.793,-5.7853,-5.8169,-5.8176,-5.8182,-5.82,-5.821,-5.8219,0,0,0,0,0,-5.7161,-5.7253,-5.7258,-5.7287,-5.7447,-5.756,-5.7581,-5.7619,-5.7593,-5.764,-5.7691,-5.7692,-5.791,-5.7865,-5.7893,-5.7949,-5.8166,-5.8174,-5.8181,-5.8196,-5.8208,-5.8219,0,0,0,0,0,0,-5.7161,-5.7266,-5.7272,-5.7398,-5.7471,-5.7562,-5.7623,-5.7631,-5.7711,-5.7706,-5.7749,-5.777,-5.7884,-5.7929,-5.7877,-5.807,-5.8035,-5.8048,-5.8037,-5.8049,-5.8058,-5.8044,-5.7862,0,0,0,0,0,-5.7176,-5.7261,-5.7348,-5.7451,-5.7487,-5.7549,-5.76,-5.7623,-5.7699,-5.7729,-5.7788,-5.7861,-5.7945,-5.8,-5.8083,-5.8208,-5.8228,-5.826,-5.827,-5.8277,-5.8287,-5.8356,-5.8371,-5.821,-5.821,-5.821,0,0,-5.7207,-5.7275,-5.7326,-5.7453,-5.7511,-5.7597,-5.7574,-5.7666,-5.7729,-5.7743,-5.7855,-5.7902,-5.7985,-5.8106,-5.8162,-5.8146,-5.8337,-5.8287,-5.8292,-5.8298,-5.8365,-5.838,-5.8394,-5.8215,-5.8214,-5.8214,0,0,-5.7307,-5.7368,-5.746,-5.752,-5.7609,-5.765,-5.7672,-5.7764,-5.7795,-5.791,-5.7922,-5.7998,-5.8143,-5.8202,-5.8251,-5.8375,-5.8378,-5.8401,-5.8449,-5.8515,-5.8528,-5.8539,-5.8582,-5.8597,-5.8412,-5.8412,-5.8412,0,-5.7333,-5.7464,-5.7506,-5.7597,-5.7652,-5.7671,-5.7764,-5.7819,-5.7931,-5.7968,-5.7949,-5.8133,-5.819,-5.8325,-5.8355,-5.8395,-5.842,-5.8389,-5.8523,-5.8535,-5.8546,-5.8587,-5.8603,-5.8414,-5.8413,-5.8413,-5.8413,0,-5.7491,-5.7582,-5.7645,-5.7754,-5.7816,-5.7908,-5.7963,-5.8021,-5.804,-5.8082,-5.8198,-5.8269,-5.8365,-5.84,-5.8418,-5.8537,-5.8524,-5.8514,-5.8479,-5.8563,-5.8602,-5.8618,-5.8416,-5.8416,-5.8415,-5.8415,0,0,-5.7593,-5.7726,-5.7748,-5.7797,-5.7899,-5.7969,-5.8061,-5.8158,-5.8206,-5.8283,-5.836,-5.8484,-5.8475,-5.8531,-5.8557,-5.8616,-5.8708,-5.8598,-5.8601,-5.8614,-5.8841,-5.8846,-5.8864,-5.8712,-5.8715,-5.8718,-5.8833,0,-5.7703,-5.7869,-5.791,-5.8051,-5.8134,-5.8154,-5.8235,-5.8305,-5.8348,-5.8424,-5.8471,-5.8557,-5.854,-5.8574,-5.8633,-5.8684,-5.8753,-5.8676,-5.8782,-5.8785,-5.8758,-5.8884,-5.889,-5.8996,-5.8849,-5.8852,-5.8854,0,-5.7852,-5.7934,-5.8083,-5.8174,-5.8211,-5.8282,-5.8374,-5.8447,-5.8527,-5.8554,-5.8617,-5.8637,-5.8733,-5.8696,-5.8828,-5.8775,-5.8821,-5.8853,-5.8858,-5.8867,-5.8822,-5.8895,-5.9031,-5.9045,-5.8878,-5.8876,-5.8875,0,-5.7909,-5.8057,-5.8165,-5.8207,-5.8316,-5.8366,-5.8413,-5.8491,-5.8546,-5.8626,-5.8662,-5.8752,-5.88,-5.8869,-5.8912,-5.8881,-5.9041,-5.9007,-5.9064,-5.9063,-5.9094,-5.9091,-5.9237,-5.9128,-5.9128,-5.9127,-5.9127,0,-5.8026,-5.8116,-5.8192,-5.8258,-5.836,-5.8407,-5.8506,-5.8553,-5.8622,-5.8698,-5.8721,-5.8791,-5.8845,-5.8923,-5.8958,-5.9061,-5.9083,-5.9106,-5.9114,-5.9103,-5.91,-5.9132,-5.9124,-5.9132,-5.9131,-5.913,-5.9129,0,-5.8105,-5.816,-5.828,-5.8374,-5.8399,-5.847,-5.855,-5.8614,-5.8659,-5.8754,-5.8779,-5.8848,-5.894,-5.8991,-5.9107,-5.913,-5.9245,-5.925,-5.9218,-5.9221,-5.9274,-5.9267,-5.9443,-5.9468,-5.9345,-5.9346,-5.9347,0,-5.8175,-5.8245,-5.8347,-5.84,-5.8448,-5.8533,-5.859,-5.8639,-5.8697,-5.8794,-5.8847,-5.8941,-5.9018,-5.9164,-5.9224,-5.9312,-5.9318,-5.9374,-5.9332,-5.9318,-5.9317,-5.9311,-5.9318,-5.938,-5.9381,-5.9382,-5.9383,0,-5.8292,-5.8316,-5.8398,-5.8489,-5.8557,-5.8631,-5.8704,-5.8746,-5.8807,-5.8871,-5.8966,-5.9027,-5.9146,-5.9238,-5.9331,-5.9379,-5.9391,-5.9397,-5.9414,-5.9402,-5.938,-5.9391,-5.9235,-5.9392,-5.9391,-5.939,-5.939,-5.9389,-5.8368,-5.8431,-5.8512,-5.8602,-5.8663,-5.8732,-5.8797,-5.885,-5.8931,-5.9032,-5.9056,-5.9156,-5.9234,-5.9361,-5.9412,-5.949,-5.9479,-5.9505,-5.9511,-5.9516,-5.9517,-5.937,-5.9507,-5.9507,-5.9507,-5.9507,-5.9507,0,-5.8484,-5.8538,-5.8621,-5.8723,-5.8794,-5.8802,-5.8883,-5.8942,-5.903,-5.9103,-5.9179,-5.9288,-5.9378,-5.9446,-5.9538,-5.9587,-5.9595,-5.9609,-5.9605,-5.9615,-5.9522,-5.9497,-5.9602,-5.9601,-5.9601,-5.9601,-5.9601,-5.9601,-5.8553,-5.866,-5.8693,-5.883,-5.8883,-5.8982,-5.9028,-5.9091,-5.9149,-5.927,-5.9346,-5.939,-5.9461,-5.9558,-5.9641,-5.9658,-5.969,-5.9703,-5.9721,-5.9632,-5.9622,-5.9612,-5.9588,-5.971,-5.9711,-5.9807,-5.9808,-5.9809]},{"header":{"parameterUnit":"m.s-1","parameterCategory":1,"la1":30.2991,"la2":30.254,"lo1":-89.0895,"lo2":-89.0444,"dy":0.0017,"dx":0.0017,"nx":28,"ny":28,"refTime":"2024-04-28T09:00:00:Z","depth":0,"parameterNumber":3,"parameterNumberName":"V-component_of_WINDS"},"data":[0,0,0,0,0,0,0,0,0,0,0,0,0,0,0,0,0,0,0,0,0,0,0,0,0,0,0,0,0,0,0,0,0,0,0,0,0,0,0,0,0,0,0,0,0,0,0,0,0,0,0,0,0,0,0,0,0,0,5.9037,5.9038,0,5.9102,5.9103,5.9104,5.9053,5.9051,5.9049,5.9047,5.911,5.9114,5.9117,0,0,0,0,0,0,0,0,0,0,0,0,0,5.8868,5.8871,5.9037,5.9038,5.9039,5.9102,5.9103,5.9104,5.9053,5.9051,5.9048,5.9046,5.9109,5.9113,5.9118,0,0,0,0,0,0,0,0,0,0,0,0,0,5.8938,5.8872,5.9037,5.9021,5.9021,5.9102,5.9103,5.9104,5.9054,5.9051,5.9047,5.9044,5.9108,5.9113,5.9118,5.9218,0,0,5.9135,5.9138,0,0,0,0,0,0,0,0,5.8934,5.8944,5.9023,5.9023,5.9022,5.9066,5.9066,5.9142,5.9055,5.9041,5.9046,5.9043,5.9098,5.9104,5.9123,5.9221,5.9223,5.9136,5.9139,5.9142,5.9143,0,0,0,0,0,0,0,5.8929,5.8941,5.9063,5.9024,5.9024,5.901,5.9017,5.9081,5.9087,5.9042,5.9039,5.9047,5.9097,5.9118,5.9124,5.9224,5.9136,5.9141,5.9144,5.9146,5.9407,5.9411,0,0,0,0,0,0,5.8926,5.8937,5.9061,5.9065,5.8969,5.9016,5.9023,5.9055,5.9086,5.9088,5.905,5.9045,5.911,5.9118,5.9126,5.9245,5.9142,5.9147,5.915,5.9404,5.9408,5.9412,0,0,0,0,0,0,5.8923,5.8938,5.9058,5.9,5.9015,5.9023,5.9059,5.9058,5.9079,5.9092,5.9093,5.907,5.9108,5.9119,5.9196,5.9247,5.9149,5.9154,5.9399,5.9405,5.941,5.9483,0,0,0,0,0,0,5.8918,5.8937,5.8975,5.9002,5.9018,5.9127,5.9062,5.9062,5.9089,5.9083,5.9111,5.9113,5.9106,5.9188,5.9201,5.9252,5.9159,5.9395,5.9402,5.9408,5.9476,5.949,5.9502,0,0,0,0,0,5.8912,5.8992,5.8977,5.8992,5.9066,5.913,5.9139,5.9131,5.9094,5.9132,5.914,5.9112,5.9239,5.9196,5.9211,5.9264,5.9392,5.94,5.9408,5.947,5.9487,5.9502,0,0,0,0,0,0,5.897,5.8995,5.8979,5.907,5.9099,5.9122,5.9169,5.9149,5.9188,5.9181,5.9168,5.9174,5.9256,5.9268,5.9219,5.9363,5.9309,5.9321,5.9352,5.9368,5.9381,5.9376,5.9163,0,0,0,0,0,5.8994,5.9045,5.9064,5.9142,5.9157,5.9161,5.9189,5.918,5.9209,5.922,5.9234,5.9262,5.9308,5.9339,5.9382,5.9478,5.9483,5.9522,5.9535,5.9546,5.9556,5.9608,5.9625,5.9438,5.9438,5.9438,0,0,5.9043,5.9063,5.9095,5.9154,5.9175,5.9228,5.9172,5.9229,5.9268,5.9228,5.9302,5.9314,5.9344,5.9431,5.947,5.9444,5.9609,5.9556,5.9565,5.9569,5.9618,5.9635,5.9651,5.9444,5.9443,5.9442,0,0,5.9158,5.9179,5.9247,5.9269,5.9302,5.9305,5.9321,5.9348,5.9354,5.9428,5.94,5.9446,5.9526,5.9549,5.9571,5.9697,5.9673,5.9712,5.978,5.9831,5.9845,5.9858,5.9903,5.992,5.9721,5.9722,5.9722,0,5.9215,5.9293,5.9284,5.9344,5.9371,5.9339,5.9408,5.943,5.9475,5.9494,5.9464,5.9564,5.9583,5.9675,5.9706,5.9725,5.9743,5.9708,5.9844,5.9857,5.9869,5.9912,5.9929,5.9726,5.9726,5.9725,5.9725,0,5.9361,5.9416,5.9466,5.9512,5.9545,5.9609,5.9609,5.9643,5.9632,5.9637,5.9713,5.9734,5.9782,5.9803,5.9792,5.9894,5.9877,5.9846,5.9792,5.9891,5.9931,5.9948,5.9733,5.9731,5.973,5.9729,0,0,5.9514,5.9554,5.9573,5.9594,5.9629,5.9671,5.9733,5.9781,5.981,5.9842,5.9894,5.9964,5.9936,5.9961,5.9953,5.9997,6.0096,5.9961,5.9961,5.9985,6.021,6.0233,6.0252,6.0081,6.0084,6.0086,6.0208,0,5.9631,5.9741,5.9735,5.9838,5.9888,5.986,5.9914,5.9941,5.9948,5.9992,5.9999,6.0048,6.0008,6.0023,6.0066,6.0075,6.0141,6.0066,6.0128,6.0131,6.0121,6.0273,6.0297,6.041,6.0223,6.0226,6.0228,0,5.9782,5.9821,5.993,5.9957,5.9978,6.0028,6.0071,6.0113,6.0143,6.0145,6.0175,6.0159,6.0222,6.0168,6.0254,6.0203,6.0229,6.0237,6.0241,6.0246,6.0185,6.0282,6.0446,6.0463,6.0252,6.025,6.0248,0,5.9883,5.9962,6.0038,6.0056,6.0091,6.0126,6.0142,6.0169,6.0198,6.0236,6.0254,6.0299,6.0323,6.0358,6.0355,6.0315,6.0443,6.0388,6.0446,6.0446,6.0473,6.0471,6.0644,6.049,6.049,6.049,6.0489,0,6.0014,6.0082,6.0084,6.013,6.0204,6.0197,6.0271,6.0283,6.0307,6.0355,6.0333,6.0378,6.0371,6.0417,6.0415,6.0487,6.0498,6.0501,6.05,6.0503,6.0503,6.0519,6.0511,6.0494,6.0493,6.0492,6.0492,0,6.0139,6.0143,6.0223,6.025,6.0258,6.0312,6.0334,6.0378,6.0384,6.0444,6.0458,6.0467,6.0519,6.052,6.0579,6.0578,6.0666,6.0656,6.0656,6.0654,6.0712,6.0707,6.0901,6.0926,6.0756,6.0758,6.0759,0,6.0223,6.0274,6.0307,6.0337,6.0356,6.0406,6.0436,6.043,6.0462,6.0501,6.054,6.0591,6.0631,6.0716,6.0727,6.0772,6.0763,6.0828,6.0769,6.0771,6.0764,6.0761,6.0766,6.0839,6.0841,6.0842,6.0844,0,6.0371,6.037,6.0415,6.046,6.0497,6.0532,6.0565,6.0592,6.059,6.0627,6.0681,6.0712,6.0774,6.0824,6.0868,6.0884,6.0864,6.0862,6.0878,6.0882,6.088,6.0882,6.0687,6.0857,6.0856,6.0855,6.0854,6.0854,6.0477,6.0522,6.0552,6.0602,6.0627,6.0658,6.0701,6.0712,6.0757,6.0807,6.0801,6.0861,6.089,6.0948,6.0968,6.1014,6.0992,6.1014,6.102,6.1026,6.1032,6.0873,6.1022,6.1022,6.1021,6.1021,6.1021,0,6.0624,6.0642,6.0689,6.0736,6.0776,6.0754,6.0789,6.0824,6.0877,6.0906,6.0947,6.1009,6.1058,6.1073,6.1121,6.1155,6.1147,6.1168,6.1165,6.1169,6.105,6.1031,6.1173,6.1173,6.1173,6.1173,6.1173,6.1173,6.0705,6.0779,6.0783,6.0869,6.0886,6.0945,6.0967,6.0996,6.102,6.109,6.1131,6.1141,6.1165,6.1214,6.1258,6.1262,6.128,6.1305,6.1304,6.1193,6.1177,6.1163,6.1145,6.1309,6.1309,6.1419,6.142,6.1421]}]]